EHI
0 0 0 0 0 0 0 0 0 0 0 0 1 5 11 15 19 25 31 31 24 14 6 1 0 0 0 0 0 0 0 0 0 0 0 0 0 0 0 0 0 0 0 0
0 0 0 0 0 0 0 0 0 0 0 0 2 7 15 22 26 30 31 27 19 11 5 1 0 0 0 0 0 0 0 0 0 0 0 0 0 0 0 0 0 0 0 0
0 0 0 0 0 0 0 0 0 0 0 0 2 7 13 18 22 24 21 16 10 6 2 0 0 0 0 0 0 0 0 0 0 0 0 0 0 0 0 0 0 0 0 0
0 0 0 0 0 0 0 0 0 0 0 0 2 3 5 7 9 9 7 5 3 2 0 0 0 0 0 0 0 0 0 0 0 0 0 0 0 0 0 0 0 0 0 0
0 0 0 0 0 0 0 0 0 0 0 0 1 1 1 1 1 1 0 0 0 0 0 0 0 0 0 0 0 0 0 0 0 0 0 0 0 0 0 0 0 0 0 0
0 0 0 0 0 0 0 0 0 0 0 0 0 0 0 0 0 0 0 0 0 0 0 0 0 0 0 0 0 0 0 0 0 0 0 0 0 0 0 0 0 0 0 0
0 0 0 0 0 0 0 0 0 0 0 0 0 0 0 0 0 0 0 0 0 0 0 0 0 0 0 0 0 0 0 0 0 0 0 0 0 0 0 0 0 0 0 0
0 0 0 0 0 0 0 0 0 0 0 0 0 0 0 0 0 0 0 0 0 0 0 0 0 0 0 0 0 0 0 0 0 0 0 0 0 0 0 0 0 0 0 0
0 0 0 0 0 0 0 0 0 0 0 0 0 0 0 0 0 0 0 0 0 0 0 0 0 0 0 0 0 0 0 0 0 0 0 0 0 0 0 0 0 0 0 0
0 0 0 0 0 0 0 0 0 0 0 0 0 0 0 0 0 0 0 0 0 0 0 0 0 0 0 0 0 0 0 0 0 0 0 0 0 0 0 0 0 0 0 0
0 0 0 0 0 0 0 0 0 0 0 0 0 0 0 0 0 0 0 0 0 0 0 0 0 0 0 0 0 0 0 0 0 0 0 0 0 0 0 0 0 0 0 0
0 0 0 0 0 0 0 0 0 0 0 0 0 0 0 0 0 0 0 0 0 0 0 0 0 0 0 0 0 0 0 0 0 0 0 0 0 0 0 0 0 0 0 0
0 0 0 0 0 0 0 0 0 0 0 0 0 0 0 0 0 0 0 0 0 0 0 0 0 0 0 0 0 0 0 0 0 0 0 0 0 0 0 0 0 0 0 0
0 0 0 0 0 0 0 0 0 0 0 0 0 0 0 0 0 0 0 0 0 0 0 0 0 0 0 0 0 0 0 0 0 0 0 0 0 0 0 0 0 0 0 0
0 0 0 0 0 0 0 0 0 0 0 0 0 0 0 0 0 0 0 0 0 0 0 0 0 0 0 0 0 0 0 0 0 0 0 0 0 0 0 0 0 0 0 0
0 0 0 0 0 0 0 0 0 0 0 0 0 0 0 0 0 0 0 0 0 0 0 0 0 0 0 0 0 0 0 0 0 0 0 0 0 0 0 0 0 0 0 0
0 0 0 0 0 0 0 0 0 0 0 0 0 0 0 0 0 0 0 0 0 0 0 0 0 0 0 0 0 0 0 0 0 0 0 0 0 0 0 0 0 0 0 0
0 0 0 0 0 0 0 0 0 0 0 0 0 0 0 0 0 0 0 0 0 0 0 0 0 0 0 0 0 0 0 0 0 0 0 0 0 0 0 0 0 0 0 0
0 0 0 0 0 0 0 0 0 0 0 0 0 0 0 0 0 0 0 0 0 0 0 0 0 0 0 0 0 0 0 0 0 0 0 0 0 0 0 0 0 0 0 0
0 0 0 0 0 0 0 0 0 0 0 0 0 0 0 0 0 0 0 0 0 0 0 0 0 0 0 0 0 0 0 0 0 0 0 0 0 0 0 0 0 0 0 0
0 0 0 0 0 0 0 0 0 0 0 0 0 0 0 0 0 0 0 0 0 0 0 0 0 0 0 0 0 0 0 0 0 0 0 0 0 0 0 0 0 0 0 0
0 0 0 0 0 0 0 0 0 0 0 0 0 0 0 0 0 0 0 0 0 0 0 0 0 0 0 0 0 0 0 0 0 0 0 0 0 0 0 0 0 0 0 0
0 0 0 0 0 0 0 0 0 0 0 0 0 0 0 0 0 0 0 0 0 0 0 0 0 0 0 0 0 0 0 0 0 0 0 0 0 0 0 0 0 0 0 0
0 0 0 0 0 0 0 0 0 0 0 0 0 0 0 0 0 0 0 0 0 0 0 0 0 0 0 0 0 0 0 0 0 0 0 0 0 0 0 0 0 0 0 0
0 0 0 0 0 0 0 0 0 0 0 0 0 0 0 0 0 0 0 0 0 0 0 0 0 0 0 0 0 0 0 0 0 0 0 0 0 0 0 0 0 0 0 0
0 0 0 0 0 0 0 0 0 0 0 0 0 0 0 0 0 0 0 0 0 0 0 0 0 0 0 0 0 0 0 0 0 0 0 0 0 0 0 0 0 0 0 0
0 0 0 0 0 0 0 0 0 0 0 0 0 0 0 0 0 0 0 0 0 0 0 0 0 0 0 0 0 0 0 0 0 0 0 0 0 0 0 0 0 0 0 0
Wind_Speed
15 15 12 11 10 9 10 11 11 12 11 10 12 10 10 10 8 4 6 10 14 14 13 13 12 11 10 8 7 7 6 5 3 2 1 2 2 2 3 4 5 5 6 6
15 15 15 15 15 14 14 14 15 14 9 13 13 13 13 13 12 8 5 8 12 13 14 13 12 12 11 9 8 7 6 4 2 2 2 2 2 3 4 5 5 6 6 7
13 14 15 18 15 15 14 10 11 10 9 12 13 15 16 15 14 12 9 9 11 12 12 12 12 12 11 9 7 5 3 2 1 0 1 2 4 6 6 6 6 5 5 6
10 12 16 8 5 5 5 7 10 9 11 12 12 13 16 16 14 13 11 11 12 12 13 12 11 10 9 7 5 3 2 2 2 2 3 4 5 5 5 5 5 5 4 5
9 12 14 4 7 8 5 7 15 13 12 12 10 5 14 15 15 13 12 12 12 12 13 12 10 8 7 4 2 2 4 4 4 4 5 6 7 6 5 4 4 5 5 5
10 11 10 5 8 7 5 3 13 12 12 12 11 7 5 10 13 14 13 13 13 12 12 10 7 5 4 3 3 4 5 5 5 5 5 7 6 6 5 4 4 5 5 5
11 12 1 8 9 8 5 5 11 11 10 9 6 6 9 12 13 14 14 13 12 12 9 7 4 4 4 5 5 6 6 6 5 4 4 6 5 4 4 5 4 4 5 5
7 8 0 11 8 8 8 9 10 10 8 5 9 12 13 14 14 14 14 13 11 10 8 5 4 5 6 6 5 5 5 5 5 5 6 5 3 3 4 5 5 5 6 7
3 3 6 10 9 8 8 9 9 8 5 7 12 14 15 15 14 13 12 10 8 8 7 5 5 6 6 4 3 4 4 4 4 5 5 5 5 5 4 4 5 6 6 7
2 6 9 11 11 11 10 9 8 6 5 10 15 16 16 14 12 10 9 7 6 7 8 7 6 6 4 3 3 3 3 2 4 5 5 5 4 5 5 6 6 6 6 6
2 4 6 11 10 10 10 10 10 10 11 14 16 16 15 13 11 9 7 6 7 8 8 7 6 5 4 3 3 3 3 3 5 6 6 4 4 5 5 6 5 5 5 6
3 5 4 5 6 8 9 10 11 12 13 13 14 16 14 11 9 8 8 7 7 7 7 7 7 7 7 7 7 6 6 6 5 5 5 4 3 2 2 2 3 1 2 5
6 7 9 8 9 9 10 11 12 13 14 14 12 12 12 10 9 9 9 8 8 8 9 9 9 8 8 7 7 7 7 6 5 5 4 4 3 3 2 3 5 3 1 7
9 9 10 9 9 10 11 12 13 13 13 13 12 11 11 10 10 9 9 8 8 9 9 9 9 8 8 7 7 6 6 5 4 4 4 3 3 3 4 4 3 2 1 8
9 10 11 11 11 10 10 12 12 12 12 12 11 10 10 10 9 9 9 8 8 9 9 9 9 8 7 7 7 7 6 5 3 3 3 4 4 4 4 5 5 5 6 7
12 12 11 12 12 11 11 11 11 12 11 11 10 9 10 9 9 9 8 9 9 9 9 8 7 5 3 3 3 3 3 1 3 3 4 4 4 4 4 4 4 5 6 7
12 11 11 11 12 12 11 11 11 11 11 11 10 10 10 10 10 10 10 10 9 9 7 6 5 5 5 5 4 2 2 3 2 3 5 5 4 5 4 4 5 5 5 5
10 11 11 12 12 12 12 11 11 11 11 11 10 10 10 10 10 10 9 9 9 8 7 7 6 6 6 6 7 6 4 4 5 5 5 5 5 5 6 5 6 6 5 5
12 12 13 13 13 12 12 12 11 11 11 10 10 10 10 10 9 8 8 8 8 8 6 4 3 3 4 5 6 4 4 6 6 5 5 5 5 6 6 6 6 6 6 6
13 14 14 14 14 13 12 11 11 10 10 10 10 10 10 9 8 8 8 8 7 6 4 1 1 3 5 7 9 5 7 7 7 7 6 6 7 7 7 7 7 7 7 7
14 15 15 14 14 13 12 11 10 10 10 10 10 10 9 8 8 8 8 8 6 4 2 1 3 5 7 10 9 6 8 8 8 8 7 7 7 7 7 7 7 7 7 7
14 14 15 14 13 12 10 10 10 10 10 10 10 10 9 8 9 9 8 6 5 1 2 5 6 8 12 13 6 9 9 8 8 7 7 7 7 7 7 7 7 7 7 7
13 14 14 14 13 12 11 9 10 9 10 10 9 8 7 7 7 7 7 5 6 5 5 6 6 10 15 8 8 9 9 9 8 8 7 7 7 7 7 8 7 7 7 7
13 14 13 13 12 11 11 10 9 8 9 10 9 8 7 7 8 8 8 9 8 6 5 2 6 9 11 4 9 9 9 9 8 8 8 8 7 7 7 8 8 8 8 9
13 13 14 13 12 9 9 9 9 8 9 8 9 8 6 8 8 8 8 9 7 5 4 2 6 8 4 7 8 8 8 7 8 8 8 8 8 8 8 8 8 8 8 8
12 10 10 10 8 8 8 8 7 7 7 8 7 7 8 9 10 9 7 8 7 5 4 2 3 2 6 8 8 8 7 6 7 8 9 8 9 9 8 8 10 8 8 8
12 10 8 9 9 9 8 8 7 7 7 7 7 8 9 8 8 8 9 7 6 6 3 4 6 7 7 7 7 7 7 7 8 8 8 8 8 8 9 10 8 8 8 9
Wind_Direction
275 281 280 283 289 296 296 293 292 301 318 26 35 24 18 16 14 47 119 134 137 139 137 135 131 125 117 102 84 80 79 79 78 66 57 57 47 12 356 352 353 3 3 7
281 277 281 280 279 279 276 279 287 293 316 47 39 29 24 18 14 23 75 117 131 131 131 130 125 117 105 93 81 73 65 57 50 42 46 38 14 24 28 19 14 14 13 16
273 278 281 269 279 287 289 306 326 335 21 27 31 31 30 26 29 34 54 83 105 111 112 111 111 110 103 96 88 81 76 76 76 65 56 36 33 42 31 17 15 14 16 22
278 276 263 282 356 359 342 9 9 16 27 29 38 53 49 41 41 47 58 77 88 97 99 99 99 99 100 102 108 127 150 108 76 56 56 50 50 38 34 21 13 6 21 17
271 266 264 265 33 13 359 45 29 26 19 10 4 45 58 47 54 60 66 78 85 93 98 97 96 99 105 111 126 126 104 86 69 57 55 54 48 30 28 15 16 3 20 357
257 263 269 56 28 3 310 109 30 13 2 355 341 330 58 60 70 74 76 83 89 92 93 93 91 93 102 107 102 94 86 78 68 57 58 63 50 30 13 6 17 359 2 348
250 257 279 19 347 324 295 26 7 358 352 347 7 57 96 89 85 87 88 89 91 91 88 86 82 84 87 85 80 81 84 81 67 46 76 80 63 37 13 5 7 0 360 356
264 263 234 19 17 26 9 358 356 352 352 46 91 101 102 100 98 96 95 93 93 93 88 84 84 85 82 76 76 80 82 83 76 51 44 60 57 50 33 9 11 12 6 0
35 62 69 51 49 31 15 6 0 353 1 105 112 112 109 105 103 100 100 101 103 104 103 99 96 96 97 106 119 115 105 103 101 95 77 50 46 42 33 25 22 15 6 358
49 92 74 63 53 43 39 34 23 30 70 110 115 114 112 110 108 108 113 120 123 111 101 95 94 91 89 89 90 95 97 109 112 98 89 71 46 41 40 27 22 17 7 354
328 83 71 60 51 53 56 58 62 70 90 108 114 114 115 116 119 126 132 126 112 103 103 105 107 105 98 91 87 90 76 71 86 80 74 69 65 44 40 60 42 16 7 350
36 48 70 74 65 73 80 81 87 93 96 103 111 116 118 121 127 130 127 122 120 122 117 107 94 78 65 56 47 40 50 56 67 69 61 52 59 111 104 97 168 212 328 348
91 89 100 107 98 97 100 103 104 106 110 112 115 121 124 127 130 129 128 127 125 115 102 94 86 79 71 62 60 57 54 46 55 60 62 51 33 31 75 180 215 226 335 13
112 114 110 107 107 109 113 116 116 116 118 121 124 127 127 128 129 129 127 123 117 107 99 92 85 78 72 60 50 52 63 61 55 70 67 60 49 34 35 39 46 39 58 33
114 115 117 117 116 118 120 121 121 121 124 125 127 129 130 128 125 121 120 116 107 97 91 85 80 75 74 71 63 51 47 43 35 56 63 63 57 48 43 40 40 38 31 24
125 125 128 125 124 127 129 127 124 123 124 123 124 123 121 119 115 112 107 101 93 86 81 79 76 72 74 103 139 138 110 54 357 49 62 61 57 51 43 39 41 44 40 23
138 138 138 135 131 129 127 126 124 122 122 121 118 117 116 113 108 100 93 88 86 85 82 74 61 49 39 25 0 24 88 129 199 57 54 43 49 51 51 48 46 51 56 47
137 136 138 138 137 134 132 128 124 122 121 121 122 119 114 106 101 97 98 99 95 85 72 59 35 29 39 25 347 339 13 54 56 57 63 44 39 49 45 46 47 51 57 65
132 133 133 133 134 134 131 129 130 130 129 126 120 112 108 108 110 115 119 116 109 95 84 73 337 9 32 29 324 306 29 48 55 51 60 69 54 51 47 45 47 50 50 51
131 132 133 133 132 132 132 132 131 128 126 122 119 119 118 117 115 106 95 85 84 96 109 46 352 36 15 14 336 9 43 46 51 47 47 51 50 47 45 45 44 44 46 50
136 135 134 132 132 134 133 132 131 131 128 127 126 122 118 118 119 116 109 100 99 95 121 182 360 22 21 346 319 29 43 45 53 50 40 45 49 48 46 45 44 44 43 46
138 136 135 135 135 134 134 135 137 134 132 133 131 129 130 124 108 95 90 101 109 25 333 74 59 22 354 330 10 47 43 44 52 57 49 42 43 46 48 49 46 45 43 42
138 139 139 140 139 139 142 145 143 140 139 138 138 140 137 126 123 121 111 96 85 76 66 61 18 352 338 336 43 49 46 44 45 50 56 53 47 45 45 49 50 49 46 42
143 144 143 143 143 146 150 149 144 145 145 142 143 141 137 124 106 100 101 87 75 82 81 44 329 326 316 29 55 48 41 37 41 47 45 53 55 48 47 46 49 48 47 47
148 147 148 148 150 152 151 148 147 150 147 140 143 152 139 118 117 113 110 112 135 132 134 200 272 294 316 61 70 71 63 48 37 39 48 48 51 50 48 50 49 49 43 44
149 151 150 155 155 155 158 159 159 158 152 153 156 143 120 114 118 126 137 144 148 182 197 177 127 133 73 67 61 57 61 64 59 55 49 49 52 54 50 46 52 52 50 43
149 148 153 161 163 166 167 166 164 163 160 158 145 133 133 139 143 145 145 154 178 202 179 101 82 77 73 69 66 64 60 57 52 51 52 52 54 53 55 53 48 48 54 54